Time,TemperatureF,DewpointF,PressureIn,WindDirection,WindDirectionDegrees,WindSpeedMPH,WindSpeedGustMPH,Humidity,HourlyPrecipIn,Conditions,Clouds,dailyrainin,SoftwareType,DateUTC
2013-05-10 00:01:00,58.0,57.2,29.88,South,173,4.0,4.0,97,0.12,,,0.01,WeatherCatV1.15B25,2013-05-10 05:01:00,
2013-05-10 00:06:00,58.0,56.9,29.88,SSW,200,0.0,1.0,96,0.12,,,0.01,WeatherCatV1.15B25,2013-05-10 05:06:00,
2013-05-10 00:11:00,57.9,56.8,29.89,NW,310,1.0,8.0,96,0.06,,,0.01,WeatherCatV1.15B25,2013-05-10 05:11:00,
2013-05-10 00:16:00,57.9,56.8,29.89,West,278,2.0,3.0,96,0.04,,,0.02,WeatherCatV1.15B25,2013-05-10 05:16:00,
2013-05-10 00:21:00,57.9,56.8,29.89,ESE,107,2.0,3.0,96,0.04,,,0.02,WeatherCatV1.15B25,2013-05-10 05:21:00,
2013-05-10 00:26:00,57.9,57.1,29.88,SSE,163,1.0,2.0,97,0.04,,,0.02,WeatherCatV1.15B25,2013-05-10 05:26:00,
2013-05-10 00:31:00,57.9,57.1,29.86,South,175,0.0,3.0,97,0.04,,,0.02,WeatherCatV1.15B25,2013-05-10 05:31:00,
2013-05-10 00:36:00,57.8,57.0,29.89,West,278,5.0,6.0,97,0.00,,,0.02,WeatherCatV1.15B25,2013-05-10 05:36:00,
2013-05-10 00:41:00,57.8,57.0,29.89,NW,323,0.0,2.0,97,0.00,,,0.02,WeatherCatV1.15B25,2013-05-10 05:41:00,
2013-05-10 00:46:00,57.8,57.0,29.89,NE,54,3.0,7.0,97,0.00,,,0.02,WeatherCatV1.15B25,2013-05-10 05:46:00,
2013-05-10 00:51:00,57.8,57.0,29.89,WSW,254,0.0,0.0,97,0.00,,,0.02,WeatherCatV1.15B25,2013-05-10 05:51:00,
2013-05-10 00:56:00,57.8,57.0,29.90,NNW,345,3.0,6.0,97,0.00,,,0.02,WeatherCatV1.15B25,2013-05-10 05:56:00,
2013-05-10 01:01:00,57.8,57.0,29.89,NNW,341,0.0,2.0,97,0.00,,,0.02,WeatherCatV1.15B25,2013-05-10 06:01:00,
2013-05-10 01:06:00,57.8,57.0,29.90,NNW,341,1.0,2.0,97,0.00,,,0.02,WeatherCatV1.15B25,2013-05-10 06:06:00,
2013-05-10 01:11:00,57.8,57.0,29.89,NW,317,3.0,4.0,97,0.00,,,0.02,WeatherCatV1.15B25,2013-05-10 06:11:00,
2013-05-10 01:16:00,57.7,56.9,29.90,NW,310,0.0,5.0,97,0.00,,,0.02,WeatherCatV1.15B25,2013-05-10 06:16:00,
2013-05-10 01:21:00,57.7,56.9,29.89,ESE,104,0.0,2.0,97,0.00,,,0.02,WeatherCatV1.15B25,2013-05-10 06:21:00,
2013-05-10 01:26:00,57.7,56.9,29.89,SW,225,2.0,2.0,97,0.00,,,0.02,WeatherCatV1.15B25,2013-05-10 06:26:00,
2013-05-10 01:31:00,57.7,56.9,29.90,SW,225,0.0,0.0,97,0.00,,,0.02,WeatherCatV1.15B25,2013-05-10 06:31:00,
2013-05-10 01:36:00,57.6,56.8,29.90,SW,225,0.0,0.0,97,0.00,,,0.02,WeatherCatV1.15B25,2013-05-10 06:36:00,
2013-05-10 01:40:00,57.6,56.8,29.90,SW,225,0.0,0.0,97,0.00,,,0.02,WeatherCatV1.15B25,2013-05-10 06:40:00,
2013-05-10 01:45:00,57.5,56.7,29.90,SW,236,2.0,2.0,97,0.00,,,0.02,WeatherCatV1.15B25,2013-05-10 06:45:00,
2013-05-10 01:50:00,57.4,56.6,29.91,WSW,247,0.0,2.0,97,0.00,,,0.02,WeatherCatV1.15B25,2013-05-10 06:50:00,
2013-05-10 01:55:00,57.4,56.6,29.91,West,281,0.0,2.0,97,0.00,,,0.02,WeatherCatV1.15B25,2013-05-10 06:55:00,
2013-05-10 02:00:00,57.3,56.5,29.91,SSW,213,0.0,1.0,97,0.00,,,0.02,WeatherCatV1.15B25,2013-05-10 07:00:00,
2013-05-10 02:05:00,57.3,56.5,29.90,SSW,213,0.0,0.0,97,0.00,,,0.02,WeatherCatV1.15B25,2013-05-10 07:05:00,
2013-05-10 02:10:00,57.2,56.4,29.90,SW,214,0.0,0.0,97,0.00,,,0.02,WeatherCatV1.15B25,2013-05-10 07:10:00,
2013-05-10 02:15:00,57.2,56.4,29.90,SW,214,0.0,0.0,97,0.00,,,0.02,WeatherCatV1.15B25,2013-05-10 07:15:00,
2013-05-10 02:20:00,57.1,56.3,29.91,SW,214,1.0,2.0,97,0.00,,,0.02,WeatherCatV1.15B25,2013-05-10 07:20:00,
2013-05-10 02:25:00,57.1,56.3,29.90,West,276,0.0,0.0,97,0.00,,,0.02,WeatherCatV1.15B25,2013-05-10 07:25:00,
2013-05-10 02:30:00,57.0,56.2,29.90,West,276,0.0,1.0,97,0.00,,,0.02,WeatherCatV1.15B25,2013-05-10 07:30:00,
2013-05-10 02:35:00,57.0,56.2,29.90,West,276,0.0,0.0,97,0.00,,,0.02,WeatherCatV1.15B25,2013-05-10 07:35:00,
2013-05-10 02:40:00,56.9,56.1,29.89,West,276,0.0,0.0,97,0.00,,,0.02,WeatherCatV1.15B25,2013-05-10 07:40:00,
2013-05-10 02:45:00,56.9,56.1,29.89,West,276,0.0,1.0,97,0.00,,,0.02,WeatherCatV1.15B25,2013-05-10 07:45:00,
2013-05-10 02:50:00,56.8,56.0,29.89,West,276,0.0,0.0,97,0.00,,,0.02,WeatherCatV1.15B25,2013-05-10 07:50:00,
2013-05-10 02:55:00,56.8,56.0,29.89,West,276,0.0,0.0,97,0.00,,,0.02,WeatherCatV1.15B25,2013-05-10 07:55:00,
2013-05-10 03:00:00,56.8,56.0,29.89,West,276,0.0,0.0,97,0.00,,,0.02,WeatherCatV1.15B25,2013-05-10 08:00:00,
2013-05-10 03:05:00,56.7,55.9,29.90,West,276,0.0,1.0,97,0.00,,,0.02,WeatherCatV1.15B25,2013-05-10 08:05:00,
2013-05-10 03:10:00,56.6,55.8,29.90,SW,225,0.0,0.0,97,0.00,,,0.02,WeatherCatV1.15B25,2013-05-10 08:10:00,
2013-05-10 03:15:00,56.6,55.8,29.91,SW,230,0.0,1.0,97,0.00,,,0.02,WeatherCatV1.15B25,2013-05-10 08:15:00,
2013-05-10 03:20:00,56.6,55.8,29.91,WSW,247,1.0,3.0,97,0.00,,,0.02,WeatherCatV1.15B25,2013-05-10 08:20:00,
2013-05-10 03:25:00,56.7,55.9,29.90,WSW,248,0.0,0.0,97,0.00,,,0.02,WeatherCatV1.15B25,2013-05-10 08:25:00,
2013-05-10 03:30:00,56.7,56.1,29.91,WSW,248,0.0,0.0,98,0.00,,,0.02,WeatherCatV1.15B25,2013-05-10 08:30:00,
2013-05-10 03:35:00,56.8,56.2,29.90,WSW,248,0.0,0.0,98,0.00,,,0.02,WeatherCatV1.15B25,2013-05-10 08:35:00,
2013-05-10 03:40:00,56.8,56.2,29.90,WSW,248,0.0,0.0,98,0.00,,,0.02,WeatherCatV1.15B25,2013-05-10 08:40:00,
2013-05-10 03:45:00,56.8,56.2,29.90,WSW,248,0.0,0.0,98,0.00,,,0.02,WeatherCatV1.15B25,2013-05-10 08:45:00,
2013-05-10 03:50:00,56.8,56.2,29.89,WSW,248,0.0,0.0,98,0.00,,,0.02,WeatherCatV1.15B25,2013-05-10 08:50:00,
2013-05-10 03:55:00,56.7,56.1,29.90,WSW,248,0.0,0.0,98,0.00,,,0.02,WeatherCatV1.15B25,2013-05-10 08:55:00,
2013-05-10 04:00:00,56.7,56.1,29.90,WSW,248,0.0,0.0,98,0.00,,,0.02,WeatherCatV1.15B25,2013-05-10 09:00:00,
2013-05-10 04:05:00,56.7,56.1,29.89,WSW,248,0.0,0.0,98,0.00,,,0.02,WeatherCatV1.15B25,2013-05-10 09:05:00,
2013-05-10 04:10:00,56.8,56.2,29.89,WSW,248,0.0,0.0,98,0.00,,,0.02,WeatherCatV1.15B25,2013-05-10 09:10:00,
2013-05-10 04:15:00,56.7,56.1,29.89,WSW,248,0.0,0.0,98,0.00,,,0.02,WeatherCatV1.15B25,2013-05-10 09:15:00,
2013-05-10 04:20:00,56.8,56.2,29.89,WSW,248,0.0,0.0,98,0.00,,,0.02,WeatherCatV1.15B25,2013-05-10 09:20:00,
2013-05-10 04:25:00,56.8,56.2,29.89,WSW,248,0.0,0.0,98,0.00,,,0.02,WeatherCatV1.15B25,2013-05-10 09:25:00,
2013-05-10 04:30:00,56.8,56.2,29.89,WSW,248,0.0,0.0,98,0.00,,,0.02,WeatherCatV1.15B25,2013-05-10 09:30:00,
2013-05-10 04:35:00,56.8,56.2,29.89,NW,313,0.0,1.0,98,0.00,,,0.02,WeatherCatV1.15B25,2013-05-10 09:35:00,
2013-05-10 04:40:00,56.8,56.2,29.89,West,261,0.0,1.0,98,0.00,,,0.02,WeatherCatV1.15B25,2013-05-10 09:40:00,
2013-05-10 04:45:00,56.9,56.3,29.89,West,265,0.0,1.0,98,0.00,,,0.02,WeatherCatV1.15B25,2013-05-10 09:45:00,
2013-05-10 04:50:00,56.9,56.3,29.89,NE,39,2.0,3.0,98,0.00,,,0.02,WeatherCatV1.15B25,2013-05-10 09:50:00,
2013-05-10 04:55:00,56.9,56.3,29.89,West,268,3.0,3.0,98,0.00,,,0.02,WeatherCatV1.15B25,2013-05-10 09:55:00,
2013-05-10 05:00:00,57.0,56.4,29.89,WSW,256,0.0,1.0,98,0.00,,,0.02,WeatherCatV1.15B25,2013-05-10 10:00:00,
2013-05-10 05:05:00,57.0,56.4,29.89,West,266,0.0,0.0,98,0.00,,,0.02,WeatherCatV1.15B25,2013-05-10 10:05:00,
2013-05-10 05:10:00,57.0,56.4,29.89,West,266,0.0,1.0,98,0.00,,,0.02,WeatherCatV1.15B25,2013-05-10 10:10:00,
2013-05-10 05:15:00,56.9,56.3,29.89,WNW,294,1.0,3.0,98,0.00,,,0.02,WeatherCatV1.15B25,2013-05-10 10:15:00,
2013-05-10 05:20:00,57.0,56.4,29.89,WNW,294,0.0,0.0,98,0.00,,,0.02,WeatherCatV1.15B25,2013-05-10 10:20:00,
2013-05-10 05:25:00,56.9,56.3,29.89,WNW,294,0.0,0.0,98,0.00,,,0.02,WeatherCatV1.15B25,2013-05-10 10:25:00,
2013-05-10 05:30:00,56.9,56.3,29.89,WNW,294,0.0,0.0,98,0.00,,,0.02,WeatherCatV1.15B25,2013-05-10 10:30:00,
2013-05-10 05:35:00,56.8,56.2,29.89,WNW,294,0.0,0.0,98,0.00,,,0.02,WeatherCatV1.15B25,2013-05-10 10:35:00,
2013-05-10 05:40:00,56.8,56.2,29.89,WNW,294,0.0,0.0,98,0.00,,,0.02,WeatherCatV1.15B25,2013-05-10 10:40:00,
2013-05-10 05:45:00,56.8,56.2,29.89,WNW,294,0.0,0.0,98,0.00,,,0.02,WeatherCatV1.15B25,2013-05-10 10:45:00,
2013-05-10 05:50:00,56.8,56.2,29.89,WNW,294,0.0,0.0,98,0.00,,,0.02,WeatherCatV1.15B25,2013-05-10 10:50:00,
2013-05-10 05:55:00,56.8,56.2,29.89,WNW,294,0.0,0.0,98,0.00,,,0.02,WeatherCatV1.15B25,2013-05-10 10:55:00,
2013-05-10 06:00:00,56.8,56.2,29.89,WNW,294,0.0,0.0,98,0.00,,,0.02,WeatherCatV1.15B25,2013-05-10 11:00:00,
2013-05-10 06:05:00,56.8,56.2,29.89,WNW,294,0.0,0.0,98,0.00,,,0.02,WeatherCatV1.15B25,2013-05-10 11:05:00,
2013-05-10 06:10:00,56.8,56.2,29.89,WNW,294,0.0,0.0,98,0.00,,,0.02,WeatherCatV1.15B25,2013-05-10 11:10:00,
2013-05-10 06:15:00,56.8,56.2,29.90,WNW,294,0.0,0.0,98,0.00,,,0.02,WeatherCatV1.15B25,2013-05-10 11:15:00,
2013-05-10 06:20:00,56.8,56.2,29.89,WNW,294,0.0,1.0,98,0.00,,,0.02,WeatherCatV1.15B25,2013-05-10 11:20:00,
2013-05-10 06:25:00,56.9,56.3,29.89,West,270,2.0,2.0,98,0.00,,,0.02,WeatherCatV1.15B25,2013-05-10 11:25:00,
2013-05-10 06:30:00,57.0,56.4,29.90,West,268,0.0,3.0,98,0.00,,,0.02,WeatherCatV1.15B25,2013-05-10 11:30:00,
2013-05-10 06:35:00,57.1,56.5,29.90,WNW,290,1.0,3.0,98,0.00,,,0.02,WeatherCatV1.15B25,2013-05-10 11:35:00,
2013-05-10 06:40:00,57.2,56.6,29.90,WNW,296,0.0,2.0,98,0.00,,,0.02,WeatherCatV1.15B25,2013-05-10 11:40:00,
2013-05-10 06:45:00,57.3,56.7,29.90,NW,311,0.0,2.0,98,0.00,,,0.02,WeatherCatV1.15B25,2013-05-10 11:45:00,
2013-05-10 06:50:00,57.5,56.9,29.90,WNW,286,1.0,4.0,98,0.00,,,0.02,WeatherCatV1.15B25,2013-05-10 11:50:00,
2013-05-10 06:55:00,57.6,57.0,29.89,WNW,284,1.0,4.0,98,0.00,,,0.02,WeatherCatV1.15B25,2013-05-10 11:55:00,
2013-05-10 07:00:00,57.7,57.1,29.89,NW,306,1.0,5.0,98,0.00,,,0.02,WeatherCatV1.15B25,2013-05-10 12:00:00,
2013-05-10 07:05:00,57.8,57.2,29.90,NW,316,2.0,2.0,98,0.00,,,0.02,WeatherCatV1.15B25,2013-05-10 12:05:00,
2013-05-10 07:10:00,58.0,57.7,29.90,NW,319,0.0,3.0,99,0.00,,,0.02,WeatherCatV1.15B25,2013-05-10 12:10:00,
2013-05-10 07:15:00,58.1,57.8,29.91,WNW,293,0.0,2.0,99,0.00,,,0.02,WeatherCatV1.15B25,2013-05-10 12:15:00,
2013-05-10 07:20:00,58.4,58.1,29.91,NW,323,2.0,3.0,99,0.00,,,0.02,WeatherCatV1.15B25,2013-05-10 12:20:00,
2013-05-10 07:25:00,58.6,58.3,29.91,NW,317,3.0,6.0,99,0.00,,,0.02,WeatherCatV1.15B25,2013-05-10 12:25:00,
2013-05-10 07:30:00,58.8,58.5,29.91,NW,325,1.0,7.0,99,0.00,,,0.02,WeatherCatV1.15B25,2013-05-10 12:30:00,
2013-05-10 07:35:00,58.9,58.6,29.92,NNW,327,0.0,6.0,99,0.00,,,0.02,WeatherCatV1.15B25,2013-05-10 12:35:00,
2013-05-10 07:40:00,59.1,58.8,29.92,NNW,343,4.0,8.0,99,0.00,,,0.02,WeatherCatV1.15B25,2013-05-10 12:40:00,
2013-05-10 07:45:00,59.2,58.9,29.92,West,264,0.0,0.0,99,0.00,,,0.02,WeatherCatV1.15B25,2013-05-10 12:45:00,
2013-05-10 07:50:00,59.4,59.1,29.92,NNE,22,0.0,2.0,99,0.00,,,0.02,WeatherCatV1.15B25,2013-05-10 12:50:00,
2013-05-10 07:55:00,59.6,59.3,29.92,WNW,294,2.0,5.0,99,0.00,,,0.02,WeatherCatV1.15B25,2013-05-10 12:55:00,
2013-05-10 08:00:00,59.7,59.4,29.92,NNW,336,3.0,4.0,99,0.00,,,0.02,WeatherCatV1.15B25,2013-05-10 13:00:00,
2013-05-10 08:05:00,59.8,59.5,29.92,West,281,3.0,5.0,99,0.00,,,0.02,WeatherCatV1.15B25,2013-05-10 13:05:00,
2013-05-10 08:10:00,59.8,59.5,29.93,North,350,3.0,8.0,99,0.00,,,0.02,WeatherCatV1.15B25,2013-05-10 13:10:00,
2013-05-10 08:16:00,59.9,59.6,29.93,North,0,1.0,1.0,99,0.00,,,0.02,WeatherCatV1.15B25,2013-05-10 13:16:00,
2013-05-10 08:21:00,60.0,59.7,29.94,NNE,13,5.0,10.0,99,0.00,,,0.02,WeatherCatV1.15B25,2013-05-10 13:21:00,
2013-05-10 08:26:00,60.0,59.7,29.94,NNW,340,4.0,4.0,99,0.00,,,0.02,WeatherCatV1.15B25,2013-05-10 13:26:00,
2013-05-10 08:31:00,60.0,59.7,29.94,North,9,5.0,9.0,99,0.00,,,0.02,WeatherCatV1.15B25,2013-05-10 13:31:00,
2013-05-10 08:36:00,60.1,59.5,29.94,NNW,335,2.0,6.0,98,0.00,,,0.02,WeatherCatV1.15B25,2013-05-10 13:36:00,
2013-05-10 08:41:00,60.2,59.6,29.95,NNE,13,5.0,6.0,98,0.00,,,0.02,WeatherCatV1.15B25,2013-05-10 13:41:00,
2013-05-10 08:46:00,60.3,59.7,29.95,North,9,5.0,5.0,98,0.00,,,0.02,WeatherCatV1.15B25,2013-05-10 13:46:00,
2013-05-10 08:51:00,60.5,59.9,29.94,NNE,22,3.0,8.0,98,0.00,,,0.02,WeatherCatV1.15B25,2013-05-10 13:51:00,
2013-05-10 08:56:00,60.9,60.3,29.94,NNW,336,5.0,5.0,98,0.00,,,0.02,WeatherCatV1.15B25,2013-05-10 13:56:00,
2013-05-10 09:01:00,61.2,60.3,29.95,North,351,6.0,7.0,97,0.00,,,0.02,WeatherCatV1.15B25,2013-05-10 14:01:00,
2013-05-10 09:06:00,61.3,60.1,29.95,NW,309,2.0,5.0,96,0.00,,,0.02,WeatherCatV1.15B25,2013-05-10 14:06:00,
2013-05-10 09:11:00,61.8,60.6,29.95,NW,312,0.0,4.0,96,0.00,,,0.02,WeatherCatV1.15B25,2013-05-10 14:11:00,
2013-05-10 09:16:00,62.6,61.7,29.95,NNW,347,4.0,4.0,97,0.00,,,0.02,WeatherCatV1.15B25,2013-05-10 14:16:00,
2013-05-10 09:21:00,62.8,60.4,29.95,North,5,9.0,10.0,92,0.00,,,0.02,WeatherCatV1.15B25,2013-05-10 14:21:00,
2013-05-10 09:26:00,62.6,59.9,29.94,North,0,5.0,7.0,91,0.00,,,0.02,WeatherCatV1.15B25,2013-05-10 14:26:00,
2013-05-10 09:31:00,62.5,59.8,29.95,NNE,15,5.0,5.0,91,0.00,,,0.02,WeatherCatV1.15B25,2013-05-10 14:31:00,
2013-05-10 09:36:00,62.5,59.8,29.95,NNW,331,4.0,8.0,91,0.00,,,0.02,WeatherCatV1.15B25,2013-05-10 14:36:00,
2013-05-10 09:41:00,62.5,59.8,29.95,NNW,344,7.0,8.0,91,0.00,,,0.02,WeatherCatV1.15B25,2013-05-10 14:41:00,
2013-05-10 09:46:00,62.5,59.8,29.95,NNW,339,4.0,6.0,91,0.00,,,0.02,WeatherCatV1.15B25,2013-05-10 14:46:00,
2013-05-10 09:51:00,62.7,60.3,29.95,North,355,5.0,5.0,92,0.00,,,0.02,WeatherCatV1.15B25,2013-05-10 14:51:00,
2013-05-10 09:56:00,62.7,59.7,29.95,NNW,341,4.0,6.0,90,0.00,,,0.02,WeatherCatV1.15B25,2013-05-10 14:56:00,
2013-05-10 10:01:00,62.8,59.8,29.95,North,355,5.0,10.0,90,0.00,,,0.02,WeatherCatV1.15B25,2013-05-10 15:01:00,
2013-05-10 10:06:00,63.0,60.0,29.95,NNW,344,3.0,8.0,90,0.00,,,0.02,WeatherCatV1.15B25,2013-05-10 15:06:00,
2013-05-10 10:11:00,63.1,59.8,29.95,North,0,4.0,6.0,89,0.00,,,0.02,WeatherCatV1.15B25,2013-05-10 15:11:00,
2013-05-10 10:16:00,63.2,59.9,29.95,NNW,348,3.0,6.0,89,0.00,,,0.02,WeatherCatV1.15B25,2013-05-10 15:16:00,
2013-05-10 10:21:00,63.6,60.3,29.95,NNW,337,4.0,5.0,89,0.00,,,0.02,WeatherCatV1.15B25,2013-05-10 15:21:00,
2013-05-10 10:26:00,63.7,59.8,29.95,NNW,343,3.0,6.0,87,0.00,,,0.02,WeatherCatV1.15B25,2013-05-10 15:26:00,
2013-05-10 10:31:00,63.8,59.9,29.95,North,5,7.0,10.0,87,0.00,,,0.02,WeatherCatV1.15B25,2013-05-10 15:31:00,
2013-05-10 10:36:00,63.8,59.5,29.95,North,355,6.0,9.0,86,0.00,,,0.02,WeatherCatV1.15B25,2013-05-10 15:36:00,
2013-05-10 10:41:00,63.6,59.7,29.95,North,355,5.0,11.0,87,0.00,,,0.02,WeatherCatV1.15B25,2013-05-10 15:41:00,
2013-05-10 10:46:00,64.1,61.4,29.95,NNW,340,3.0,9.0,91,0.00,,,0.02,WeatherCatV1.15B25,2013-05-10 15:46:00,
2013-05-10 10:51:00,64.6,61.0,29.96,North,0,7.0,11.0,88,0.00,,,0.02,WeatherCatV1.15B25,2013-05-10 15:51:00,
2013-05-10 10:56:00,64.7,60.4,29.96,NNW,342,5.0,7.0,86,0.00,,,0.02,WeatherCatV1.15B25,2013-05-10 15:56:00,
2013-05-10 11:01:00,64.7,60.4,29.95,NNW,340,7.0,9.0,86,0.00,,,0.02,WeatherCatV1.15B25,2013-05-10 16:01:00,
2013-05-10 11:06:00,65.0,61.0,29.95,North,355,7.0,9.0,87,0.00,,,0.02,WeatherCatV1.15B25,2013-05-10 16:06:00,
2013-05-10 11:11:00,65.2,59.9,29.96,North,11,6.0,8.0,83,0.00,,,0.02,WeatherCatV1.15B25,2013-05-10 16:11:00,
2013-05-10 11:16:00,65.1,59.8,29.95,NW,324,8.0,10.0,83,0.00,,,0.02,WeatherCatV1.15B25,2013-05-10 16:16:00,
2013-05-10 11:21:00,64.9,59.3,29.95,North,349,7.0,8.0,82,0.00,,,0.02,WeatherCatV1.15B25,2013-05-10 16:21:00,
2013-05-10 11:26:00,64.7,59.1,29.96,NNW,348,8.0,10.0,82,0.00,,,0.02,WeatherCatV1.15B25,2013-05-10 16:26:00,
2013-05-10 11:31:00,64.4,58.8,29.95,North,0,7.0,10.0,82,0.00,,,0.02,WeatherCatV1.15B25,2013-05-10 16:31:00,
2013-05-10 11:36:00,64.3,59.0,29.95,NNW,348,2.0,6.0,83,0.00,,,0.02,WeatherCatV1.15B25,2013-05-10 16:36:00,
2013-05-10 11:41:00,64.4,59.8,29.95,NW,310,6.0,8.0,85,0.00,,,0.02,WeatherCatV1.15B25,2013-05-10 16:41:00,
2013-05-10 11:46:00,64.5,59.2,29.95,North,5,8.0,9.0,83,0.00,,,0.02,WeatherCatV1.15B25,2013-05-10 16:46:00,
2013-05-10 11:51:00,64.4,59.5,29.96,NNW,327,4.0,5.0,84,0.00,,,0.02,WeatherCatV1.15B25,2013-05-10 16:51:00,
2013-05-10 11:56:00,64.4,59.1,29.95,NW,323,8.0,9.0,83,0.00,,,0.02,WeatherCatV1.15B25,2013-05-10 16:56:00,
2013-05-10 12:01:00,64.4,58.8,29.95,NE,44,3.0,8.0,82,0.00,,,0.02,WeatherCatV1.15B25,2013-05-10 17:01:00,
2013-05-10 12:06:00,64.9,60.6,29.95,North,11,5.0,7.0,86,0.00,,,0.02,WeatherCatV1.15B25,2013-05-10 17:06:00,
2013-05-10 12:11:00,65.1,59.8,29.95,NNE,13,5.0,10.0,83,0.00,,,0.02,WeatherCatV1.15B25,2013-05-10 17:11:00,
2013-05-10 12:16:00,65.2,60.2,29.96,WNW,298,2.0,4.0,84,0.00,,,0.02,WeatherCatV1.15B25,2013-05-10 17:16:00,
2013-05-10 12:21:00,65.5,59.9,29.96,NNW,347,4.0,5.0,82,0.00,,,0.02,WeatherCatV1.15B25,2013-05-10 17:21:00,
2013-05-10 12:26:00,65.7,59.7,29.96,NNW,334,4.0,8.0,81,0.00,,,0.02,WeatherCatV1.15B25,2013-05-10 17:26:00,
2013-05-10 12:31:00,65.6,58.9,29.96,NNW,341,8.0,11.0,79,0.00,,,0.02,WeatherCatV1.15B25,2013-05-10 17:31:00,
2013-05-10 12:36:00,65.4,58.7,29.96,NNE,14,1.0,8.0,79,0.00,,,0.02,WeatherCatV1.15B25,2013-05-10 17:36:00,
2013-05-10 12:41:00,65.4,58.4,29.97,WNW,303,1.0,2.0,78,0.00,,,0.02,WeatherCatV1.15B25,2013-05-10 17:41:00,
2013-05-10 12:46:00,65.4,59.1,29.97,WNW,296,6.0,8.0,80,0.00,,,0.02,WeatherCatV1.15B25,2013-05-10 17:46:00,
2013-05-10 12:51:00,65.4,58.7,29.97,NW,325,2.0,5.0,79,0.00,,,0.02,WeatherCatV1.15B25,2013-05-10 17:51:00,
2013-05-10 12:56:00,65.3,58.3,29.97,NW,322,2.0,8.0,78,0.00,,,0.02,WeatherCatV1.15B25,2013-05-10 17:56:00,
2013-05-10 13:01:00,65.4,58.4,29.97,NNW,338,5.0,7.0,78,0.00,,,0.02,WeatherCatV1.15B25,2013-05-10 18:01:00,
2013-05-10 13:06:00,65.5,58.5,29.97,NNW,331,2.0,7.0,78,0.00,,,0.02,WeatherCatV1.15B25,2013-05-10 18:06:00,
2013-05-10 13:11:00,65.6,58.2,29.96,WNW,298,1.0,8.0,77,0.00,,,0.02,WeatherCatV1.15B25,2013-05-10 18:11:00,
2013-05-10 13:16:00,65.6,58.5,29.96,NW,326,3.0,5.0,78,0.00,,,0.02,WeatherCatV1.15B25,2013-05-10 18:16:00,
2013-05-10 13:21:00,65.6,59.3,29.96,NW,309,0.0,7.0,80,0.00,,,0.02,WeatherCatV1.15B25,2013-05-10 18:21:00,
2013-05-10 13:26:00,65.8,59.1,29.96,NNW,338,5.0,6.0,79,0.00,,,0.02,WeatherCatV1.15B25,2013-05-10 18:26:00,
2013-05-10 13:31:00,65.9,59.5,29.96,WSW,250,1.0,5.0,80,0.00,,,0.02,WeatherCatV1.15B25,2013-05-10 18:31:00,
2013-05-10 13:36:00,66.2,59.8,29.96,WNW,302,3.0,4.0,80,0.00,,,0.02,WeatherCatV1.15B25,2013-05-10 18:36:00,
2013-05-10 13:41:00,66.4,58.6,29.96,WNW,302,2.0,5.0,76,0.00,,,0.02,WeatherCatV1.15B25,2013-05-10 18:41:00,
2013-05-10 13:46:00,66.3,58.5,29.97,NNW,345,4.0,6.0,76,0.00,,,0.02,WeatherCatV1.15B25,2013-05-10 18:46:00,
2013-05-10 13:51:00,66.0,58.6,29.97,North,350,9.0,10.0,77,0.00,,,0.02,WeatherCatV1.15B25,2013-05-10 18:51:00,
2013-05-10 13:56:00,65.5,58.1,29.97,North,355,7.0,10.0,77,0.00,,,0.02,WeatherCatV1.15B25,2013-05-10 18:56:00,
2013-05-10 14:01:00,64.9,58.2,29.97,NNE,13,5.0,10.0,79,0.00,,,0.02,WeatherCatV1.15B25,2013-05-10 19:01:00,
2013-05-10 14:06:00,64.9,59.6,29.97,West,263,5.0,6.0,83,0.00,,,0.02,WeatherCatV1.15B25,2013-05-10 19:06:00,
2013-05-10 14:11:00,65.1,59.1,29.97,NNW,338,6.0,11.0,81,0.00,,,0.02,WeatherCatV1.15B25,2013-05-10 19:11:00,
2013-05-10 14:16:00,65.0,58.3,29.97,NW,325,10.0,10.0,79,0.00,,,0.02,WeatherCatV1.15B25,2013-05-10 19:16:00,
2013-05-10 14:21:00,64.7,58.0,29.97,North,5,6.0,9.0,79,0.00,,,0.02,WeatherCatV1.15B25,2013-05-10 19:21:00,
2013-05-10 14:26:00,64.6,58.6,29.97,WSW,257,2.0,8.0,81,0.00,,,0.02,WeatherCatV1.15B25,2013-05-10 19:26:00,
2013-05-10 14:31:00,64.8,58.5,29.97,North,5,6.0,9.0,80,0.00,,,0.02,WeatherCatV1.15B25,2013-05-10 19:31:00,
2013-05-10 14:36:00,64.9,58.2,29.97,NW,311,4.0,9.0,79,0.00,,,0.02,WeatherCatV1.15B25,2013-05-10 19:36:00,
2013-05-10 14:41:00,64.9,57.9,29.97,North,355,9.0,10.0,78,0.00,,,0.02,WeatherCatV1.15B25,2013-05-10 19:41:00,
2013-05-10 14:46:00,64.6,57.2,29.97,NNE,20,4.0,8.0,77,0.00,,,0.02,WeatherCatV1.15B25,2013-05-10 19:46:00,
2013-05-10 14:51:00,64.5,57.8,29.97,NNE,15,3.0,6.0,79,0.00,,,0.02,WeatherCatV1.15B25,2013-05-10 19:51:00,
2013-05-10 14:53:00,64.6,57.9,29.97,NW,326,5.0,5.0,79,0.00,,,0.02,WeatherCatV1.15B25,2013-05-10 19:53:00,
2013-05-10 14:58:00,65.0,58.7,29.96,NNW,342,3.0,5.0,80,0.00,,,0.02,WeatherCatV1.15B25,2013-05-10 19:58:00,
2013-05-10 15:03:00,65.5,57.7,29.97,North,0,7.0,11.0,76,0.00,,,0.02,WeatherCatV1.15B25,2013-05-10 20:03:00,
2013-05-10 15:08:00,65.6,56.7,29.97,NW,325,8.0,9.0,73,0.00,,,0.02,WeatherCatV1.15B25,2013-05-10 20:08:00,
2013-05-10 15:13:00,65.6,57.8,29.97,NW,325,4.0,12.0,76,0.00,,,0.02,WeatherCatV1.15B25,2013-05-10 20:13:00,
2013-05-10 15:18:00,65.6,56.7,29.97,WNW,294,5.0,6.0,73,0.00,,,0.02,WeatherCatV1.15B25,2013-05-10 20:18:00,
2013-05-10 15:23:00,65.7,57.2,29.97,NNW,333,3.0,9.0,74,0.00,,,0.02,WeatherCatV1.15B25,2013-05-10 20:23:00,
2013-05-10 15:28:00,65.8,57.6,29.97,NW,315,6.0,6.0,75,0.00,,,0.02,WeatherCatV1.15B25,2013-05-10 20:28:00,
2013-05-10 15:33:00,65.7,57.9,29.97,NW,317,1.0,4.0,76,0.00,,,0.02,WeatherCatV1.15B25,2013-05-10 20:33:00,
2013-05-10 15:38:00,65.9,57.4,29.97,NNW,331,3.0,8.0,74,0.00,,,0.02,WeatherCatV1.15B25,2013-05-10 20:38:00,
2013-05-10 15:43:00,66.1,57.9,29.97,North,9,7.0,7.0,75,0.00,,,0.02,WeatherCatV1.15B25,2013-05-10 20:43:00,
2013-05-10 15:48:00,66.3,57.4,29.97,SW,228,6.0,8.0,73,0.00,,,0.02,WeatherCatV1.15B25,2013-05-10 20:48:00,
2013-05-10 15:53:00,66.5,57.2,29.96,SW,226,3.0,8.0,72,0.00,,,0.02,WeatherCatV1.15B25,2013-05-10 20:53:00,
2013-05-10 15:58:00,66.5,56.8,29.97,NNE,13,2.0,4.0,71,0.00,,,0.02,WeatherCatV1.15B25,2013-05-10 20:58:00,
2013-05-10 16:03:00,66.7,57.4,29.97,NNW,333,5.0,6.0,72,0.00,,,0.02,WeatherCatV1.15B25,2013-05-10 21:03:00,
2013-05-10 16:08:00,66.8,56.3,29.97,NNW,344,7.0,8.0,69,0.00,,,0.02,WeatherCatV1.15B25,2013-05-10 21:08:00,
2013-05-10 16:13:00,66.5,56.8,29.97,NNW,337,3.0,9.0,71,0.00,,,0.02,WeatherCatV1.15B25,2013-05-10 21:13:00,
2013-05-10 16:18:00,66.2,57.3,29.97,NW,319,3.0,7.0,73,0.00,,,0.02,WeatherCatV1.15B25,2013-05-10 21:18:00,
2013-05-10 16:23:00,65.8,56.9,29.97,NNW,333,4.0,8.0,73,0.00,,,0.02,WeatherCatV1.15B25,2013-05-10 21:23:00,
2013-05-10 16:28:00,65.4,56.5,29.97,NNW,344,6.0,9.0,73,0.00,,,0.02,WeatherCatV1.15B25,2013-05-10 21:28:00,
2013-05-10 16:33:00,65.1,57.0,29.97,North,0,4.0,8.0,75,0.00,,,0.02,WeatherCatV1.15B25,2013-05-10 21:33:00,
2013-05-10 16:38:00,64.6,56.9,29.97,NNW,346,4.0,11.0,76,0.00,,,0.02,WeatherCatV1.15B25,2013-05-10 21:38:00,
2013-05-10 16:43:00,63.8,56.4,29.97,NNW,343,5.0,8.0,77,0.00,,,0.02,WeatherCatV1.15B25,2013-05-10 21:43:00,
2013-05-10 16:48:00,63.3,56.7,29.97,North,5,4.0,7.0,79,0.00,,,0.02,WeatherCatV1.15B25,2013-05-10 21:48:00,
2013-05-10 16:53:00,63.0,56.7,29.97,North,351,5.0,10.0,80,0.00,,,0.02,WeatherCatV1.15B25,2013-05-10 21:53:00,
2013-05-10 16:58:00,62.9,56.3,29.97,NNE,22,5.0,13.0,79,0.00,,,0.02,WeatherCatV1.15B25,2013-05-10 21:58:00,
2013-05-10 17:03:00,62.7,56.1,29.98,WNW,300,8.0,12.0,79,0.00,,,0.02,WeatherCatV1.15B25,2013-05-10 22:03:00,
2013-05-10 17:08:00,62.7,56.4,29.98,NNE,21,7.0,12.0,80,0.00,,,0.02,WeatherCatV1.15B25,2013-05-10 22:08:00,
2013-05-10 17:13:00,62.8,56.5,29.98,NNE,13,6.0,9.0,80,0.00,,,0.02,WeatherCatV1.15B25,2013-05-10 22:13:00,
2013-05-10 17:18:00,62.6,56.0,29.98,North,355,6.0,11.0,79,0.00,,,0.02,WeatherCatV1.15B25,2013-05-10 22:18:00,
2013-05-10 17:23:00,62.4,55.8,29.98,North,0,5.0,9.0,79,0.00,,,0.02,WeatherCatV1.15B25,2013-05-10 22:23:00,
2013-05-10 17:28:00,62.2,55.6,29.98,WNW,295,2.0,8.0,79,0.00,,,0.02,WeatherCatV1.15B25,2013-05-10 22:28:00,
2013-05-10 17:33:00,62.0,55.8,29.98,NNW,344,6.0,7.0,80,0.00,,,0.02,WeatherCatV1.15B25,2013-05-10 22:33:00,
2013-05-10 17:38:00,61.9,55.7,29.98,NNE,13,7.0,9.0,80,0.00,,,0.02,WeatherCatV1.15B25,2013-05-10 22:38:00,
2013-05-10 17:43:00,61.9,56.3,29.98,North,5,5.0,7.0,82,0.00,,,0.02,WeatherCatV1.15B25,2013-05-10 22:43:00,
2013-05-10 17:48:00,61.9,56.0,29.97,NNE,30,5.0,6.0,81,0.00,,,0.02,WeatherCatV1.15B25,2013-05-10 22:48:00,
2013-05-10 17:53:00,61.8,55.6,29.97,NNW,339,2.0,8.0,80,0.00,,,0.02,WeatherCatV1.15B25,2013-05-10 22:53:00,
2013-05-10 17:58:00,61.7,55.8,29.97,NNW,338,2.0,7.0,81,0.00,,,0.02,WeatherCatV1.15B25,2013-05-10 22:58:00,
2013-05-10 18:03:00,61.6,56.4,29.97,NNW,327,2.0,5.0,83,0.00,,,0.02,WeatherCatV1.15B25,2013-05-10 23:03:00,
2013-05-10 18:08:00,61.7,56.1,29.97,NNW,346,5.0,6.0,82,0.00,,,0.02,WeatherCatV1.15B25,2013-05-10 23:08:00,
2013-05-10 18:13:00,61.8,56.6,29.97,North,0,10.0,10.0,83,0.00,,,0.02,WeatherCatV1.15B25,2013-05-10 23:13:00,
2013-05-10 18:18:00,62.1,56.2,29.97,NNW,329,8.0,10.0,81,0.00,,,0.02,WeatherCatV1.15B25,2013-05-10 23:18:00,
2013-05-10 18:23:00,62.2,56.3,29.97,North,355,4.0,11.0,81,0.00,,,0.02,WeatherCatV1.15B25,2013-05-10 23:23:00,
2013-05-10 18:28:00,62.1,56.2,29.97,North,11,6.0,6.0,81,0.00,,,0.02,WeatherCatV1.15B25,2013-05-10 23:28:00,
2013-05-10 18:29:00,62.1,56.2,29.97,North,355,8.0,10.0,81,0.00,,,0.02,WeatherCatV1.15B25,2013-05-10 23:29:00,
2013-05-10 18:34:00,61.8,55.9,29.97,NW,320,7.0,10.0,81,0.00,,,0.02,WeatherCatV1.15B25,2013-05-10 23:34:00,
2013-05-10 18:39:00,61.6,56.0,29.97,North,0,2.0,4.0,82,0.00,,,0.02,WeatherCatV1.15B25,2013-05-10 23:39:00,
2013-05-10 18:44:00,61.4,56.2,29.97,North,5,2.0,5.0,83,0.00,,,0.02,WeatherCatV1.15B25,2013-05-10 23:44:00,
2013-05-10 18:49:00,61.3,56.1,29.97,North,9,7.0,8.0,83,0.00,,,0.02,WeatherCatV1.15B25,2013-05-10 23:49:00,
2013-05-10 18:54:00,61.2,56.0,29.97,North,355,6.0,10.0,83,0.00,,,0.02,WeatherCatV1.15B25,2013-05-10 23:54:00,
2013-05-10 18:59:00,61.1,55.9,29.97,North,0,9.0,10.0,83,0.00,,,0.02,WeatherCatV1.15B25,2013-05-10 23:59:00,
2013-05-10 19:04:00,61.0,55.8,29.97,NNW,337,5.0,10.0,83,0.00,,,0.02,WeatherCatV1.15B25,2013-05-11 00:04:00,
2013-05-10 19:09:00,60.9,55.4,29.97,NW,313,9.0,10.0,82,0.00,,,0.02,WeatherCatV1.15B25,2013-05-11 00:09:00,
2013-05-10 19:14:00,60.8,55.6,29.97,NNW,333,5.0,7.0,83,0.00,,,0.02,WeatherCatV1.15B25,2013-05-11 00:14:00,
2013-05-10 19:19:00,60.7,55.2,29.97,North,0,5.0,8.0,82,0.00,,,0.02,WeatherCatV1.15B25,2013-05-11 00:19:00,
2013-05-10 19:24:00,60.5,55.0,29.98,North,0,6.0,10.0,82,0.00,,,0.02,WeatherCatV1.15B25,2013-05-11 00:24:00,
2013-05-10 19:29:00,60.2,54.7,29.98,North,355,5.0,9.0,82,0.00,,,0.02,WeatherCatV1.15B25,2013-05-11 00:29:00,
2013-05-10 19:34:00,60.0,54.8,29.98,North,350,8.0,10.0,83,0.00,,,0.02,WeatherCatV1.15B25,2013-05-11 00:34:00,
2013-05-10 19:39:00,59.8,55.0,29.98,North,0,3.0,7.0,84,0.00,,,0.02,WeatherCatV1.15B25,2013-05-11 00:39:00,
2013-05-10 19:44:00,59.7,54.9,29.98,NNE,27,7.0,7.0,84,0.00,,,0.02,WeatherCatV1.15B25,2013-05-11 00:44:00,
2013-05-10 19:49:00,59.6,55.1,29.99,NNW,346,5.0,6.0,85,0.00,,,0.02,WeatherCatV1.15B25,2013-05-11 00:49:00,
2013-05-10 19:54:00,59.4,54.6,29.99,NNE,22,6.0,10.0,84,0.00,,,0.02,WeatherCatV1.15B25,2013-05-11 00:54:00,
2013-05-10 19:59:00,59.2,54.0,30.00,NNW,334,8.0,14.0,83,0.00,,,0.02,WeatherCatV1.15B25,2013-05-11 00:59:00,
2013-05-10 20:04:00,58.9,53.7,30.00,NNW,340,8.0,9.0,83,0.00,,,0.02,WeatherCatV1.15B25,2013-05-11 01:04:00,
2013-05-10 20:09:00,58.7,53.9,30.00,NE,37,5.0,8.0,84,0.00,,,0.02,WeatherCatV1.15B25,2013-05-11 01:09:00,
2013-05-10 20:14:00,58.3,53.5,30.00,North,9,7.0,9.0,84,0.00,,,0.02,WeatherCatV1.15B25,2013-05-11 01:14:00,
2013-05-10 20:19:00,58.0,53.5,30.00,NNW,348,4.0,11.0,85,0.00,,,0.02,WeatherCatV1.15B25,2013-05-11 01:19:00,
2013-05-10 20:24:00,57.7,53.5,30.00,North,0,5.0,9.0,86,0.00,,,0.02,WeatherCatV1.15B25,2013-05-11 01:24:00,
2013-05-10 20:29:00,57.5,53.3,30.00,North,355,3.0,12.0,86,0.00,,,0.02,WeatherCatV1.15B25,2013-05-11 01:29:00,
2013-05-10 20:34:00,57.3,53.1,30.00,NNW,344,10.0,12.0,86,0.00,,,0.02,WeatherCatV1.15B25,2013-05-11 01:34:00,
2013-05-10 20:39:00,57.2,53.4,30.00,North,355,4.0,10.0,87,0.00,,,0.02,WeatherCatV1.15B25,2013-05-11 01:39:00,
2013-05-10 20:44:00,57.2,53.4,30.01,North,0,4.0,7.0,87,0.00,,,0.02,WeatherCatV1.15B25,2013-05-11 01:44:00,
2013-05-10 20:49:00,57.2,53.4,30.01,North,0,6.0,9.0,87,0.00,,,0.02,WeatherCatV1.15B25,2013-05-11 01:49:00,
2013-05-10 20:54:00,57.1,53.6,30.01,NNE,13,4.0,8.0,88,0.00,,,0.02,WeatherCatV1.15B25,2013-05-11 01:54:00,
2013-05-10 20:59:00,57.1,53.6,30.01,NNE,30,2.0,8.0,88,0.00,,,0.02,WeatherCatV1.15B25,2013-05-11 01:59:00,
2013-05-10 21:04:00,57.0,53.2,30.02,NNW,342,7.0,9.0,87,0.00,,,0.02,WeatherCatV1.15B25,2013-05-11 02:04:00,
2013-05-10 21:09:00,56.9,53.1,30.02,NNE,26,6.0,12.0,87,0.00,,,0.02,WeatherCatV1.15B25,2013-05-11 02:09:00,
2013-05-10 21:14:00,56.9,53.4,30.03,North,355,7.0,9.0,88,0.00,,,0.02,WeatherCatV1.15B25,2013-05-11 02:14:00,
2013-05-10 21:19:00,56.8,53.3,30.03,North,355,6.0,8.0,88,0.00,,,0.02,WeatherCatV1.15B25,2013-05-11 02:19:00,
2013-05-10 21:24:00,56.8,53.3,30.03,NNE,19,4.0,9.0,88,0.00,,,0.02,WeatherCatV1.15B25,2013-05-11 02:24:00,
2013-05-10 21:29:00,56.7,53.5,30.03,NNE,23,4.0,6.0,89,0.00,,,0.02,WeatherCatV1.15B25,2013-05-11 02:29:00,
2013-05-10 21:34:00,56.7,53.5,30.02,NNE,17,2.0,3.0,89,0.00,,,0.02,WeatherCatV1.15B25,2013-05-11 02:34:00,
2013-05-10 21:39:00,56.6,53.4,30.02,NNE,20,4.0,5.0,89,0.00,,,0.02,WeatherCatV1.15B25,2013-05-11 02:39:00,
2013-05-10 21:44:00,56.6,53.4,30.03,NNE,14,3.0,6.0,89,0.00,,,0.02,WeatherCatV1.15B25,2013-05-11 02:44:00,
2013-05-10 21:49:00,56.4,53.2,30.03,NNE,17,2.0,5.0,89,0.00,,,0.02,WeatherCatV1.15B25,2013-05-11 02:49:00,
2013-05-10 21:54:00,56.4,53.2,30.03,NNE,20,2.0,4.0,89,0.00,,,0.02,WeatherCatV1.15B25,2013-05-11 02:54:00,
2013-05-10 21:59:00,56.4,53.2,30.03,North,355,0.0,4.0,89,0.00,,,0.02,WeatherCatV1.15B25,2013-05-11 02:59:00,
2013-05-10 22:04:00,56.3,53.1,30.03,North,9,0.0,3.0,89,0.00,,,0.02,WeatherCatV1.15B25,2013-05-11 03:04:00,
2013-05-10 22:09:00,56.1,52.9,30.03,North,355,0.0,2.0,89,0.00,,,0.02,WeatherCatV1.15B25,2013-05-11 03:09:00,
2013-05-10 22:14:00,55.9,52.7,30.03,North,355,1.0,1.0,89,0.00,,,0.02,WeatherCatV1.15B25,2013-05-11 03:14:00,
2013-05-10 22:19:00,55.7,52.5,30.03,North,355,0.0,1.0,89,0.00,,,0.02,WeatherCatV1.15B25,2013-05-11 03:19:00,
2013-05-10 22:24:00,55.4,52.2,30.03,North,355,0.0,1.0,89,0.00,,,0.02,WeatherCatV1.15B25,2013-05-11 03:24:00,
2013-05-10 22:29:00,55.0,51.8,30.03,North,355,0.0,1.0,89,0.00,,,0.02,WeatherCatV1.15B25,2013-05-11 03:29:00,
2013-05-10 22:34:00,54.7,51.5,30.03,North,355,0.0,1.0,89,0.00,,,0.02,WeatherCatV1.15B25,2013-05-11 03:34:00,
2013-05-10 22:39:00,54.4,51.5,30.03,North,355,0.0,0.0,90,0.00,,,0.02,WeatherCatV1.15B25,2013-05-11 03:39:00,
2013-05-10 22:44:00,54.2,51.3,30.03,North,355,0.0,0.0,90,0.00,,,0.02,WeatherCatV1.15B25,2013-05-11 03:44:00,
2013-05-10 22:49:00,53.9,50.4,30.03,North,355,0.0,0.0,88,0.00,,,0.02,WeatherCatV1.15B25,2013-05-11 03:49:00,
2013-05-10 22:54:00,53.7,50.5,30.03,North,355,0.0,0.0,89,0.00,,,0.02,WeatherCatV1.15B25,2013-05-11 03:54:00,
2013-05-10 22:59:00,53.4,50.5,30.02,North,355,0.0,0.0,90,0.00,,,0.02,WeatherCatV1.15B25,2013-05-11 03:59:00,
2013-05-10 23:01:00,53.3,50.4,30.02,North,355,0.0,0.0,90,0.00,,,0.02,WeatherCatV1.15B25,2013-05-11 04:01:00,
2013-05-10 23:06:00,53.0,50.1,30.02,North,355,0.0,0.0,90,0.00,,,0.02,WeatherCatV1.15B25,2013-05-11 04:06:00,
2013-05-10 23:11:00,52.6,49.5,30.02,North,355,0.0,0.0,89,0.00,,,0.02,WeatherCatV1.15B25,2013-05-11 04:11:00,
2013-05-10 23:16:00,52.4,49.6,30.03,North,355,0.0,0.0,90,0.00,,,0.02,WeatherCatV1.15B25,2013-05-11 04:16:00,
2013-05-10 23:21:00,52.1,49.3,30.03,North,355,0.0,0.0,90,0.00,,,0.02,WeatherCatV1.15B25,2013-05-11 04:21:00,
2013-05-10 23:26:00,51.8,49.0,30.03,North,355,0.0,0.0,90,0.00,,,0.02,WeatherCatV1.15B25,2013-05-11 04:26:00,
2013-05-10 23:31:00,51.5,48.7,30.03,North,355,0.0,0.0,90,0.00,,,0.02,WeatherCatV1.15B25,2013-05-11 04:31:00,
2013-05-10 23:36:00,51.2,48.4,30.04,North,355,0.0,0.0,90,0.00,,,0.02,WeatherCatV1.15B25,2013-05-11 04:36:00,
2013-05-10 23:41:00,50.9,48.1,30.05,North,355,0.0,0.0,90,0.00,,,0.02,WeatherCatV1.15B25,2013-05-11 04:41:00,
2013-05-10 23:46:00,50.6,48.1,30.06,North,355,0.0,0.0,91,0.00,,,0.02,WeatherCatV1.15B25,2013-05-11 04:46:00,
2013-05-10 23:51:00,50.4,48.2,30.06,North,355,0.0,0.0,92,0.00,,,0.02,WeatherCatV1.15B25,2013-05-11 04:51:00,
2013-05-10 23:56:00,50.1,47.9,30.06,North,355,0.0,0.0,92,0.00,,,0.02,WeatherCatV1.15B25,2013-05-11 04:56:00,